Weather History for KTAN - September, 2012

Change the Weather History Date:

Monday, September 10, 2012

  Actual Average Record
Temperature  
Mean Temperature 57 °F -  
Max Temperature 71 °F 76 °F 89 °F (1961)
Min Temperature 48 °F 52 °F 37 °F (1975)
Degree Days  
Heating Degree Days 8    
Growing Degree Days 7 (Base 50)    
Moisture  
Dew Point 48 °F    
Average Humidity 85    
Maximum Humidity 97    
Minimum Humidity 48    
Precipitation  
Precipitation 0.00 in - - ()
Sea Level Pressure  
Sea Level Pressure 29.87 in    
Wind  
Wind Speed 1 mph (NW)    
Max Wind Speed 13 mph    
Max Gust Speed 20 mph    
Visibility 4 miles    
Events      
Averages and records for this station are not official NWS values.
T = Trace of Precipitation, MM = Missing Value Source: NWS Daily Summary

Daily Weather History Graph

Daily Weather History Graph

Search for Another Location

Airport or City:

Trip Planner

Search our weather history database for the weather conditions in past years. The results will help you decide how hot, cold, wet, or windy it might be!

Date:

Astronomy

Sep. 10, 2012 Rise Set
Actual Time 6:19 AM EDT 7:01 PM EDT
Civil Twilight 5:51 AM EDT 7:29 PM EDT
Nautical Twilight 5:18 AM EDT 8:02 PM EDT
Astronomical Twilight 4:43 AM EDT 8:37 PM EDT
Moon 12:33 AM EDT (9/10) 3:32 PM EDT (9/10)
Length of Visible Light 13h 38m
Length of Day
12h 41m
Waning Crescent, 30% of the Moon is Illuminated
Sep 10
Waning Crescent
Sep 15
New
Sep 22
First Quarter
Sep 29
Full
Oct 8
Last Quarter

Hourly Weather History & Observations

Time (EDT) Temp. Dew Point Humidity Pressure Visibility Wind Dir Wind Speed Gust Speed Precip Events Conditions
12:18 AM 52.0 °F 50.0 °F 93% 29.84 in 1.5 mi Calm Calm - N/A   Scattered Clouds
12:28 AM 51.1 °F 50.0 °F 96% 29.84 in 1.0 mi Calm Calm - N/A   Mist
12:35 AM 51.1 °F 50.0 °F 96% 29.84 in 0.8 mi Calm Calm - N/A   Mist
12:42 AM 51.1 °F 50.0 °F 96% 29.84 in 1.8 mi Calm Calm - N/A   Mostly Cloudy
12:45 AM 51.1 °F 50.0 °F 96% 29.84 in 3.0 mi Calm Calm - N/A   Scattered Clouds
12:52 AM 51.1 °F 48.9 °F 92% 29.85 in 8.0 mi Calm Calm - N/A   Scattered Clouds
1:01 AM 51.1 °F 48.9 °F 92% 29.84 in 1.8 mi Calm Calm - N/A   Partly Cloudy
1:06 AM 51.1 °F 48.9 °F 92% 29.84 in 1.0 mi Calm Calm - N/A   Mist
1:09 AM 51.1 °F 48.9 °F 92% 29.84 in 0.8 mi Calm Calm - N/A   Clear
1:19 AM 51.1 °F 48.9 °F 92% 29.84 in 1.5 mi Calm Calm - N/A   Clear
1:22 AM 51.1 °F 48.9 °F 92% 29.84 in 3.0 mi Calm Calm - N/A   Clear
1:27 AM 51.1 °F 48.9 °F 92% 29.84 in 1.5 mi Calm Calm - N/A   Clear
1:29 AM 51.1 °F 48.9 °F 92% 29.84 in 0.8 mi Calm Calm - N/A   Clear
1:52 AM 51.1 °F 48.9 °F 92% 29.84 in 1.0 mi Calm Calm - N/A   Clear
2:27 AM 50.0 °F 48.9 °F 96% 29.84 in 0.8 mi Calm Calm - N/A   Clear
2:35 AM 50.0 °F 48.0 °F 93% 29.84 in 1.5 mi Calm Calm - N/A   Clear
2:40 AM 50.0 °F 48.0 °F 93% 29.84 in 3.0 mi Calm Calm - N/A   Clear
2:49 AM 50.0 °F 48.2 °F 94% 29.84 in 1.5 mi Calm Calm - N/A   Clear
2:52 AM 50.0 °F 48.0 °F 93% 29.84 in 0.8 mi Calm Calm - N/A   Clear
3:00 AM 50.0 °F 48.0 °F 93% 29.83 in 1.5 mi Calm Calm - N/A   Clear
3:03 AM 50.0 °F 48.0 °F 93% 29.83 in 3.0 mi Calm Calm - N/A   Clear
3:11 AM 50.0 °F 48.0 °F 93% 29.83 in 2.0 mi Calm Calm - N/A   Clear
3:29 AM 50.0 °F 48.0 °F 93% 29.83 in 1.2 mi Calm Calm - N/A   Clear
3:31 AM 50.0 °F 48.0 °F 93% 29.83 in 1.0 mi Calm Calm - N/A   Mist
3:43 AM 50.0 °F 48.0 °F 93% 29.84 in 1.8 mi Calm Calm - N/A   Partly Cloudy
3:45 AM 48.9 °F 46.9 °F 93% 29.84 in 3.0 mi Calm Calm - N/A   Partly Cloudy
3:52 AM 48.9 °F 48.0 °F 97% 29.84 in 9.0 mi Calm Calm - N/A   Partly Cloudy
4:06 AM 48.9 °F 46.9 °F 93% 29.85 in 1.8 mi Calm Calm - N/A   Clear
4:10 AM 48.9 °F 46.9 °F 93% 29.85 in 1.2 mi Calm Calm - N/A   Partly Cloudy
4:17 AM 48.9 °F 46.9 °F 93% 29.85 in 1.0 mi Calm Calm - N/A   Mist
4:21 AM 48.9 °F 46.9 °F 93% 29.85 in 1.5 mi Calm Calm - N/A   Partly Cloudy
4:26 AM 48.9 °F 46.9 °F 93% 29.85 in 1.0 mi Calm Calm - N/A   Mist
4:34 AM 48.9 °F 46.9 °F 93% 29.85 in 0.8 mi Calm Calm - N/A   Mist
4:37 AM 48.9 °F 46.9 °F 93% 29.85 in 1.2 mi Calm Calm - N/A   Partly Cloudy
4:39 AM 48.9 °F 46.9 °F 93% 29.85 in 2.0 mi Calm Calm - N/A   Clear
4:52 AM 48.9 °F 46.9 °F 93% 29.86 in 2.0 mi Calm Calm - N/A   Clear
5:06 AM 48.9 °F 46.9 °F 93% 29.86 in 4.0 mi Calm Calm - N/A   Clear
5:28 AM 48.9 °F 46.9 °F 93% 29.86 in 1.8 mi Calm Calm - N/A   Partly Cloudy
5:35 AM 50.0 °F 48.0 °F 93% 29.86 in 3.0 mi Calm Calm - N/A   Mostly Cloudy
5:52 AM 52.0 °F 50.0 °F 93% 29.86 in 10.0 mi Calm Calm - N/A   Overcast
6:52 AM 54.0 °F 52.0 °F 93% 29.89 in 10.0 mi West 4.6 mph - N/A   Mostly Cloudy
7:52 AM 57.9 °F 54.0 °F 87% 29.91 in 10.0 mi NNW 3.5 mph - N/A   Overcast
8:52 AM 61.0 °F 52.0 °F 72% 29.93 in 10.0 mi NNW 8.1 mph - N/A   Mostly Cloudy
9:52 AM 64.9 °F 48.9 °F 56% 29.93 in 10.0 mi North 8.1 mph - N/A   Partly Cloudy
10:52 AM 66.0 °F 46.9 °F 50% 29.92 in 10.0 mi NNW 12.7 mph 19.6 mph N/A   Clear
12:52 PM 66.0 °F 46.0 °F 48% 29.91 in 10.0 mi NNW 10.4 mph - N/A   Overcast
1:52 PM 66.0 °F 46.9 °F 50% 29.91 in 10.0 mi NW 8.1 mph 18.4 mph N/A   Overcast
3:52 PM 66.0 °F 48.0 °F 52% 29.91 in 10.0 mi NNW 9.2 mph 18.4 mph N/A   Overcast
4:52 PM 66.0 °F 48.0 °F 52% 29.92 in 10.0 mi NW 6.9 mph - N/A   Overcast
5:52 PM 64.9 °F 46.0 °F 50% 29.94 in 10.0 mi NNW 10.4 mph - N/A   Overcast
6:52 PM 62.1 °F 46.0 °F 56% 29.96 in 10.0 mi NNW 6.9 mph - N/A   Partly Cloudy
7:52 PM 57.9 °F 46.0 °F 65% 29.99 in 10.0 mi NW 3.5 mph - N/A   Clear
8:52 PM 55.9 °F 45.0 °F 67% 30.02 in 10.0 mi NW 3.5 mph - N/A   Clear
9:52 PM 54.0 °F 43.0 °F 66% 30.03 in 10.0 mi NW 3.5 mph - N/A   Clear
10:52 PM 51.1 °F 43.0 °F 74% 30.04 in 10.0 mi Calm Calm - N/A   Clear
11:52 PM 52.0 °F 43.0 °F 71% 30.04 in 10.0 mi NW 4.6 mph - N/A   Clear